Time,TemperatureF,DewpointF,PressureIn,WindDirection,WindDirectionDegrees,WindSpeedMPH,WindSpeedGustMPH,Humidity,HourlyPrecipIn,Conditions,Clouds,dailyrainin,SoftwareType,DateUTC
2013-01-26 00:00:00,20.5,17.0,30.19,SSW,200,1.0,5.0,86,0.00,,,0.00,VWS V14.01,2013-01-26 05:00:00,
2013-01-26 00:01:00,20.5,17.0,30.19,SSW,200,2.0,2.0,86,0.00,,,0.00,VWS V14.01,2013-01-26 05:01:00,
2013-01-26 00:06:00,20.5,17.0,30.19,SSW,200,2.0,3.0,86,0.00,,,0.00,VWS V14.01,2013-01-26 05:06:00,
2013-01-26 00:11:00,20.5,17.0,30.19,SSW,200,3.0,3.0,86,0.00,,,0.00,VWS V14.01,2013-01-26 05:11:00,
2013-01-26 00:16:00,20.5,17.0,30.19,SSW,200,0.0,4.0,86,0.00,,,0.00,VWS V14.01,2013-01-26 05:16:00,
2013-01-26 00:21:00,20.5,17.0,30.19,SSW,206,2.0,6.0,86,0.00,,,0.00,VWS V14.01,2013-01-26 05:21:00,
2013-01-26 00:26:00,20.6,16.8,30.19,SSW,206,3.0,6.0,85,0.00,,,0.00,VWS V14.01,2013-01-26 05:26:00,
2013-01-26 00:31:00,20.6,16.8,30.19,SSW,205,2.0,2.0,85,0.00,,,0.00,VWS V14.01,2013-01-26 05:31:00,
2013-01-26 00:36:00,20.6,16.8,30.18,South,183,2.0,5.0,85,0.00,,,0.00,VWS V14.01,2013-01-26 05:36:00,
2013-01-26 00:41:00,20.6,16.8,30.18,South,184,3.0,5.0,85,0.00,,,0.00,VWS V14.01,2013-01-26 05:41:00,
2013-01-26 00:46:00,20.6,16.8,30.18,SW,216,2.0,8.0,85,0.00,,,0.00,VWS V14.01,2013-01-26 05:46:00,
2013-01-26 00:51:00,20.5,16.7,30.19,SSW,194,2.0,8.0,85,0.00,,,0.00,VWS V14.01,2013-01-26 05:51:00,
2013-01-26 00:57:00,20.6,16.8,30.19,South,182,1.0,8.0,85,0.00,,,0.00,VWS V14.01,2013-01-26 05:57:00,
2013-01-26 01:02:00,20.6,16.8,30.19,South,184,2.0,4.0,85,0.00,,,0.00,VWS V14.01,2013-01-26 06:02:00,
2013-01-26 01:07:00,20.6,16.8,30.19,SW,221,8.0,8.0,85,0.00,,,0.00,VWS V14.01,2013-01-26 06:07:00,
2013-01-26 01:12:00,20.6,16.8,30.19,SSW,198,4.0,8.0,85,0.00,,,0.00,VWS V14.01,2013-01-26 06:12:00,
2013-01-26 01:17:00,20.6,16.5,30.19,SSW,193,6.0,8.0,84,0.00,,,0.00,VWS V14.01,2013-01-26 06:17:00,
2013-01-26 01:22:00,20.7,16.9,30.19,SSW,213,1.0,8.0,85,0.00,,,0.00,VWS V14.01,2013-01-26 06:22:00,
2013-01-26 01:27:00,20.6,16.8,30.19,SSW,208,1.0,8.0,85,0.00,,,0.00,VWS V14.01,2013-01-26 06:27:00,
2013-01-26 01:32:00,20.7,16.6,30.19,SSW,199,1.0,5.0,84,0.00,,,0.00,VWS V14.01,2013-01-26 06:32:00,
2013-01-26 01:37:00,20.7,16.9,30.19,South,186,2.0,5.0,85,0.00,,,0.00,VWS V14.01,2013-01-26 06:37:00,
2013-01-26 01:42:00,20.7,16.9,30.19,SSW,195,1.0,5.0,85,0.00,,,0.00,VWS V14.01,2013-01-26 06:42:00,
2013-01-26 01:47:00,20.7,16.9,30.19,SW,219,3.0,5.0,85,0.00,,,0.00,VWS V14.01,2013-01-26 06:47:00,
2013-01-26 01:52:00,20.7,16.9,30.19,SSW,201,1.0,6.0,85,0.00,,,0.00,VWS V14.01,2013-01-26 06:52:00,
2013-01-26 01:57:00,20.7,16.9,30.19,SSW,196,3.0,6.0,85,0.00,,,0.00,VWS V14.01,2013-01-26 06:57:00,
2013-01-26 02:03:00,20.7,16.9,30.19,SSW,196,0.0,4.0,85,0.00,,,0.00,VWS V14.01,2013-01-26 07:03:00,
2013-01-26 02:08:00,20.6,16.8,30.19,SSW,192,1.0,5.0,85,0.00,,,0.00,VWS V14.01,2013-01-26 07:08:00,
2013-01-26 02:13:00,20.6,17.1,30.19,SSW,207,1.0,5.0,86,0.00,,,0.00,VWS V14.01,2013-01-26 07:13:00,
2013-01-26 02:18:00,20.6,17.1,30.20,SW,223,0.0,5.0,86,0.00,,,0.00,VWS V14.01,2013-01-26 07:18:00,
2013-01-26 02:23:00,20.6,17.1,30.20,SSW,206,3.0,5.0,86,0.00,,,0.00,VWS V14.01,2013-01-26 07:23:00,
2013-01-26 02:28:00,20.5,17.0,30.19,SSW,198,2.0,5.0,86,0.00,,,0.00,VWS V14.01,2013-01-26 07:28:00,
2013-01-26 02:33:00,20.5,17.0,30.20,SSW,198,0.0,3.0,86,0.00,,,0.00,VWS V14.01,2013-01-26 07:33:00,
2013-01-26 02:38:00,20.5,17.2,30.20,SSW,198,0.0,3.0,87,0.00,,,0.00,VWS V14.01,2013-01-26 07:38:00,
2013-01-26 02:44:00,20.4,17.2,30.20,SSW,198,0.0,3.0,87,0.00,,,0.00,VWS V14.01,2013-01-26 07:44:00,
2013-01-26 02:49:00,20.4,17.2,30.19,SSW,198,0.0,3.0,87,0.00,,,0.00,VWS V14.01,2013-01-26 07:49:00,
2013-01-26 02:54:00,20.4,17.2,30.19,SSW,198,1.0,3.0,87,0.00,,,0.00,VWS V14.01,2013-01-26 07:54:00,
2013-01-26 02:59:00,20.4,17.2,30.20,SSW,198,0.0,3.0,87,0.00,,,0.00,VWS V14.01,2013-01-26 07:59:00,
2013-01-26 03:04:00,20.4,17.2,30.19,SSW,198,0.0,3.0,87,0.00,,,0.00,VWS V14.01,2013-01-26 08:04:00,
2013-01-26 03:09:00,20.5,17.2,30.19,SSW,198,1.0,5.0,87,0.00,,,0.00,VWS V14.01,2013-01-26 08:09:00,
2013-01-26 03:14:00,20.5,17.2,30.20,South,171,0.0,5.0,87,0.00,,,0.00,VWS V14.01,2013-01-26 08:14:00,
2013-01-26 03:19:00,20.6,17.4,30.19,South,171,0.0,5.0,87,0.00,,,0.00,VWS V14.01,2013-01-26 08:19:00,
2013-01-26 03:24:00,20.5,17.2,30.20,South,171,3.0,5.0,87,0.00,,,0.00,VWS V14.01,2013-01-26 08:24:00,
2013-01-26 03:29:00,20.5,17.2,30.20,South,171,0.0,5.0,87,0.00,,,0.00,VWS V14.01,2013-01-26 08:29:00,
2013-01-26 03:35:00,20.6,17.4,30.20,South,171,0.0,1.0,87,0.00,,,0.00,VWS V14.01,2013-01-26 08:35:00,
2013-01-26 03:40:00,20.6,17.4,30.20,South,171,0.0,3.0,87,0.00,,,0.00,VWS V14.01,2013-01-26 08:40:00,
2013-01-26 03:45:00,20.6,17.4,30.20,South,171,2.0,4.0,87,0.00,,,0.00,VWS V14.01,2013-01-26 08:45:00,
2013-01-26 03:50:00,20.7,17.5,30.20,South,171,0.0,4.0,87,0.00,,,0.00,VWS V14.01,2013-01-26 08:50:00,
2013-01-26 03:55:00,20.7,17.5,30.20,South,171,1.0,4.0,87,0.00,,,0.00,VWS V14.01,2013-01-26 08:55:00,
2013-01-26 04:00:00,20.8,17.5,30.20,South,171,1.0,2.0,87,0.00,,,0.00,VWS V14.01,2013-01-26 09:00:00,
2013-01-26 04:05:00,20.8,17.5,30.20,South,172,0.0,4.0,87,0.00,,,0.00,VWS V14.01,2013-01-26 09:05:00,
2013-01-26 04:10:00,20.8,17.5,30.21,South,172,2.0,4.0,87,0.00,,,0.00,VWS V14.01,2013-01-26 09:10:00,
2013-01-26 04:15:00,20.9,17.6,30.21,South,171,4.0,4.0,87,0.00,,,0.00,VWS V14.01,2013-01-26 09:15:00,
2013-01-26 04:21:00,21.0,17.8,30.21,SSW,197,0.0,4.0,87,0.00,,,0.00,VWS V14.01,2013-01-26 09:21:00,
2013-01-26 04:26:00,21.1,17.8,30.21,SSW,197,2.0,4.0,87,0.00,,,0.00,VWS V14.01,2013-01-26 09:26:00,
2013-01-26 04:31:00,21.2,17.9,30.22,SSW,197,1.0,2.0,87,0.00,,,0.00,VWS V14.01,2013-01-26 09:31:00,
2013-01-26 04:36:00,21.2,17.9,30.22,SSW,197,0.0,2.0,87,0.00,,,0.00,VWS V14.01,2013-01-26 09:36:00,
2013-01-26 04:41:00,21.2,17.9,30.22,SSW,197,1.0,3.0,87,0.00,,,0.00,VWS V14.01,2013-01-26 09:41:00,
2013-01-26 04:46:00,21.3,18.0,30.22,SSW,197,4.0,4.0,87,0.00,,,0.00,VWS V14.01,2013-01-26 09:46:00,
2013-01-26 04:51:00,21.4,18.1,30.22,SSW,197,1.0,4.0,87,0.00,,,0.00,VWS V14.01,2013-01-26 09:51:00,
2013-01-26 04:56:00,21.5,18.2,30.22,SSW,197,2.0,4.0,87,0.00,,,0.00,VWS V14.01,2013-01-26 09:56:00,
2013-01-26 05:01:00,21.6,18.3,30.21,SSW,203,2.0,5.0,87,0.00,,,0.00,VWS V14.01,2013-01-26 10:01:00,
2013-01-26 05:06:00,21.7,18.4,30.21,SSW,203,0.0,5.0,87,0.00,,,0.00,VWS V14.01,2013-01-26 10:06:00,
2013-01-26 05:11:00,21.8,18.3,30.21,SSW,203,0.0,5.0,86,0.00,,,0.00,VWS V14.01,2013-01-26 10:11:00,
2013-01-26 05:16:00,21.8,18.3,30.21,SSW,203,0.0,5.0,86,0.00,,,0.00,VWS V14.01,2013-01-26 10:16:00,
2013-01-26 05:22:00,21.8,18.3,30.22,SSW,203,0.0,5.0,86,0.00,,,0.00,VWS V14.01,2013-01-26 10:22:00,
2013-01-26 05:27:00,21.9,18.4,30.21,SSW,203,1.0,5.0,86,0.00,,,0.00,VWS V14.01,2013-01-26 10:27:00,
2013-01-26 05:32:00,21.9,18.4,30.22,SSW,203,1.0,3.0,86,0.00,,,0.00,VWS V14.01,2013-01-26 10:32:00,
2013-01-26 05:37:00,21.9,18.4,30.21,SSW,203,0.0,3.0,86,0.00,,,0.00,VWS V14.01,2013-01-26 10:37:00,
2013-01-26 05:42:00,21.9,18.4,30.22,SSW,203,1.0,4.0,86,0.00,,,0.00,VWS V14.01,2013-01-26 10:42:00,
2013-01-26 05:47:00,21.9,18.4,30.22,SSW,203,0.0,4.0,86,0.00,,,0.00,VWS V14.01,2013-01-26 10:47:00,
2013-01-26 05:52:00,21.9,18.4,30.22,SSW,203,0.0,4.0,86,0.00,,,0.00,VWS V14.01,2013-01-26 10:52:00,
2013-01-26 05:57:00,21.9,18.4,30.22,SSW,203,1.0,4.0,86,0.00,,,0.00,VWS V14.01,2013-01-26 10:57:00,
2013-01-26 06:02:00,21.9,18.4,30.23,SSW,203,0.0,3.0,86,0.00,,,0.00,VWS V14.01,2013-01-26 11:02:00,
2013-01-26 06:07:00,22.0,18.5,30.23,SSW,203,0.0,3.0,86,0.00,,,0.00,VWS V14.01,2013-01-26 11:07:00,
2013-01-26 06:12:00,22.0,18.5,30.23,SSW,203,1.0,3.0,86,0.00,,,0.00,VWS V14.01,2013-01-26 11:12:00,
2013-01-26 06:18:00,21.9,18.6,30.23,SSW,203,0.0,3.0,87,0.00,,,0.00,VWS V14.01,2013-01-26 11:18:00,
2013-01-26 06:23:00,21.9,18.6,30.23,SSW,203,0.0,3.0,87,0.00,,,0.00,VWS V14.01,2013-01-26 11:23:00,
2013-01-26 06:28:00,21.9,18.6,30.23,SSW,203,0.0,3.0,87,0.00,,,0.00,VWS V14.01,2013-01-26 11:28:00,
2013-01-26 06:33:00,21.9,18.6,30.23,SSW,203,0.0,2.0,87,0.00,,,0.00,VWS V14.01,2013-01-26 11:33:00,
2013-01-26 06:38:00,21.9,18.6,30.23,SSW,203,0.0,2.0,87,0.00,,,0.00,VWS V14.01,2013-01-26 11:38:00,
2013-01-26 06:43:00,22.0,18.7,30.24,SSW,203,0.0,2.0,87,0.00,,,0.00,VWS V14.01,2013-01-26 11:43:00,
2013-01-26 06:48:00,22.0,18.7,30.24,SSW,203,0.0,2.0,87,0.00,,,0.00,VWS V14.01,2013-01-26 11:48:00,
2013-01-26 06:53:00,22.0,18.7,30.24,SSW,203,0.0,2.0,87,0.00,,,0.00,VWS V14.01,2013-01-26 11:53:00,
2013-01-26 06:58:00,22.0,18.7,30.23,SSW,203,0.0,2.0,87,0.00,,,0.00,VWS V14.01,2013-01-26 11:58:00,
2013-01-26 07:03:00,22.0,18.7,30.24,SSW,203,0.0,1.0,87,0.00,,,0.00,VWS V14.01,2013-01-26 12:03:00,
2013-01-26 07:08:00,22.0,18.7,30.23,SSW,203,0.0,1.0,87,0.00,,,0.00,VWS V14.01,2013-01-26 12:08:00,
2013-01-26 07:13:00,22.0,18.7,30.24,SSW,203,0.0,1.0,87,0.00,,,0.00,VWS V14.01,2013-01-26 12:13:00,
2013-01-26 07:18:00,22.1,18.8,30.24,SSW,203,0.0,2.0,87,0.00,,,0.00,VWS V14.01,2013-01-26 12:18:00,
2013-01-26 07:23:00,22.1,18.8,30.24,SSW,203,0.0,2.0,87,0.00,,,0.00,VWS V14.01,2013-01-26 12:23:00,
2013-01-26 07:28:00,22.1,18.8,30.24,SSW,203,0.0,2.0,87,0.00,,,0.00,VWS V14.01,2013-01-26 12:28:00,
2013-01-26 07:34:00,22.1,18.8,30.24,SSW,203,0.0,0.0,87,0.00,,,0.00,VWS V14.01,2013-01-26 12:34:00,
2013-01-26 07:39:00,22.2,18.9,30.24,SSW,203,0.0,3.0,87,0.00,,,0.00,VWS V14.01,2013-01-26 12:39:00,
2013-01-26 07:44:00,22.2,18.9,30.25,SSW,203,0.0,3.0,87,0.00,,,0.00,VWS V14.01,2013-01-26 12:44:00,
2013-01-26 07:49:00,22.2,18.9,30.25,SSW,203,0.0,3.0,87,0.00,,,0.00,VWS V14.01,2013-01-26 12:49:00,
2013-01-26 07:54:00,22.3,19.3,30.25,SSW,203,0.0,3.0,88,0.00,,,0.00,VWS V14.01,2013-01-26 12:54:00,
2013-01-26 07:59:00,22.3,19.3,30.25,SSW,203,0.0,3.0,88,0.00,,,0.00,VWS V14.01,2013-01-26 12:59:00,
2013-01-26 08:04:00,22.4,19.4,30.25,SSW,203,0.0,0.0,88,0.00,,,0.00,VWS V14.01,2013-01-26 13:04:00,
2013-01-26 08:09:00,22.5,19.5,30.25,SSW,203,0.0,1.0,88,0.00,,,0.00,VWS V14.01,2013-01-26 13:09:00,
2013-01-26 08:14:00,22.5,19.5,30.25,SSW,203,0.0,1.0,88,0.00,,,0.00,VWS V14.01,2013-01-26 13:14:00,
2013-01-26 08:19:00,22.6,19.6,30.25,SSW,203,0.0,1.0,88,0.00,,,0.00,VWS V14.01,2013-01-26 13:19:00,
2013-01-26 08:25:00,22.6,19.6,30.25,SSW,203,0.0,1.0,88,0.00,,,0.00,VWS V14.01,2013-01-26 13:25:00,
2013-01-26 08:30:00,22.6,19.6,30.25,SSW,203,0.0,1.0,88,0.00,,,0.00,VWS V14.01,2013-01-26 13:30:00,
2013-01-26 08:35:00,22.6,19.6,30.25,SSW,203,1.0,1.0,88,0.00,,,0.00,VWS V14.01,2013-01-26 13:35:00,
2013-01-26 08:40:00,22.6,19.6,30.25,SSW,203,0.0,1.0,88,0.00,,,0.00,VWS V14.01,2013-01-26 13:40:00,
2013-01-26 08:45:00,22.7,19.7,30.25,SSW,203,0.0,1.0,88,0.00,,,0.00,VWS V14.01,2013-01-26 13:45:00,
2013-01-26 08:50:00,22.8,19.8,30.26,SSW,203,0.0,1.0,88,0.00,,,0.00,VWS V14.01,2013-01-26 13:50:00,
2013-01-26 08:55:00,23.0,20.0,30.26,SSW,203,0.0,1.0,88,0.00,,,0.00,VWS V14.01,2013-01-26 13:55:00,
2013-01-26 09:00:00,23.1,20.1,30.26,SSW,203,0.0,0.0,88,0.00,,,0.00,VWS V14.01,2013-01-26 14:00:00,
2013-01-26 09:05:00,23.2,20.2,30.27,SSW,203,0.0,2.0,88,0.00,,,0.00,VWS V14.01,2013-01-26 14:05:00,
2013-01-26 09:10:00,23.4,20.4,30.27,SSW,203,0.0,2.0,88,0.00,,,0.00,VWS V14.01,2013-01-26 14:10:00,
2013-01-26 09:15:00,23.6,20.8,30.27,SSW,203,0.0,2.0,89,0.00,,,0.00,VWS V14.01,2013-01-26 14:15:00,
2013-01-26 09:20:00,23.8,21.0,30.27,SSW,203,1.0,2.0,89,0.00,,,0.00,VWS V14.01,2013-01-26 14:20:00,
2013-01-26 09:25:00,24.0,21.2,30.27,SSW,203,2.0,2.0,89,0.00,,,0.00,VWS V14.01,2013-01-26 14:25:00,
2013-01-26 09:30:00,24.1,21.3,30.28,SSW,203,0.0,0.0,89,0.00,,,0.00,VWS V14.01,2013-01-26 14:30:00,
2013-01-26 09:36:00,24.3,21.5,30.28,SSW,203,0.0,3.0,89,0.00,,,0.00,VWS V14.01,2013-01-26 14:36:00,
2013-01-26 09:41:00,24.4,21.6,30.28,SSW,203,0.0,3.0,89,0.00,,,0.00,VWS V14.01,2013-01-26 14:41:00,
2013-01-26 09:46:00,24.6,21.8,30.28,SSW,203,0.0,3.0,89,0.00,,,0.00,VWS V14.01,2013-01-26 14:46:00,
2013-01-26 09:51:00,24.8,22.0,30.29,SSW,203,1.0,3.0,89,0.00,,,0.00,VWS V14.01,2013-01-26 14:51:00,
2013-01-26 09:56:00,24.9,22.1,30.29,SSW,203,1.0,3.0,89,0.00,,,0.00,VWS V14.01,2013-01-26 14:56:00,
2013-01-26 10:01:00,25.0,22.0,30.29,SSW,203,2.0,2.0,88,0.00,,,0.00,VWS V14.01,2013-01-26 15:01:00,
2013-01-26 10:06:00,25.2,22.1,30.29,SSW,203,1.0,2.0,88,0.00,,,0.00,VWS V14.01,2013-01-26 15:06:00,
2013-01-26 10:11:00,25.3,22.2,30.29,SSW,195,3.0,3.0,88,0.00,,,0.00,VWS V14.01,2013-01-26 15:11:00,
2013-01-26 10:16:00,25.4,22.4,30.29,SSW,206,0.0,4.0,88,0.00,,,0.00,VWS V14.01,2013-01-26 15:16:00,
2013-01-26 10:21:00,25.5,22.2,30.29,SSW,206,0.0,4.0,87,0.00,,,0.00,VWS V14.01,2013-01-26 15:21:00,
2013-01-26 10:26:00,25.7,22.4,30.29,South,190,3.0,4.0,87,0.00,,,0.00,VWS V14.01,2013-01-26 15:26:00,
2013-01-26 10:31:00,25.9,22.6,30.29,SW,227,2.0,3.0,87,0.00,,,0.00,VWS V14.01,2013-01-26 15:31:00,
2013-01-26 10:36:00,26.0,22.7,30.29,SW,220,0.0,3.0,87,0.00,,,0.00,VWS V14.01,2013-01-26 15:36:00,
2013-01-26 10:41:00,26.2,22.6,30.30,SW,220,0.0,3.0,86,0.00,,,0.00,VWS V14.01,2013-01-26 15:41:00,
2013-01-26 10:47:00,26.4,22.8,30.30,SW,220,1.0,3.0,86,0.00,,,0.00,VWS V14.01,2013-01-26 15:47:00,
2013-01-26 10:52:00,26.5,22.6,30.30,SW,221,2.0,3.0,85,0.00,,,0.00,VWS V14.01,2013-01-26 15:52:00,
2013-01-26 10:57:00,26.6,22.7,30.30,WNW,290,2.0,3.0,85,0.00,,,0.00,VWS V14.01,2013-01-26 15:57:00,
2013-01-26 11:02:00,26.6,22.7,30.30,West,274,1.0,2.0,85,0.00,,,0.00,VWS V14.01,2013-01-26 16:02:00,
2013-01-26 11:07:00,26.6,22.4,30.30,West,269,4.0,5.0,84,0.00,,,0.00,VWS V14.01,2013-01-26 16:07:00,
2013-01-26 11:12:00,26.6,22.4,30.30,SW,234,0.0,5.0,84,0.00,,,0.00,VWS V14.01,2013-01-26 16:12:00,
2013-01-26 11:17:00,26.6,22.4,30.30,SW,234,1.0,5.0,84,0.00,,,0.00,VWS V14.01,2013-01-26 16:17:00,
2013-01-26 11:22:00,26.6,22.4,30.29,SW,234,2.0,5.0,84,0.00,,,0.00,VWS V14.01,2013-01-26 16:22:00,
2013-01-26 11:27:00,26.7,22.8,30.29,SW,226,0.0,5.0,85,0.00,,,0.00,VWS V14.01,2013-01-26 16:27:00,
2013-01-26 11:32:00,26.8,22.9,30.30,WSW,252,1.0,2.0,85,0.00,,,0.00,VWS V14.01,2013-01-26 16:32:00,
2013-01-26 11:37:00,27.0,22.8,30.30,WSW,255,0.0,3.0,84,0.00,,,0.00,VWS V14.01,2013-01-26 16:37:00,
2013-01-26 11:42:00,27.0,22.8,30.30,WSW,244,1.0,5.0,84,0.00,,,0.00,VWS V14.01,2013-01-26 16:42:00,
2013-01-26 11:48:00,27.1,22.9,30.29,West,265,0.0,5.0,84,0.00,,,0.00,VWS V14.01,2013-01-26 16:48:00,
2013-01-26 11:53:00,27.2,23.0,30.29,West,275,1.0,5.0,84,0.00,,,0.00,VWS V14.01,2013-01-26 16:53:00,
2013-01-26 11:58:00,27.3,23.1,30.29,SW,223,0.0,5.0,84,0.00,,,0.00,VWS V14.01,2013-01-26 16:58:00,
2013-01-26 12:03:00,27.4,23.2,30.29,West,273,0.0,3.0,84,0.00,,,0.00,VWS V14.01,2013-01-26 17:03:00,
2013-01-26 12:08:00,27.5,23.3,30.29,West,279,0.0,3.0,84,0.00,,,0.00,VWS V14.01,2013-01-26 17:08:00,
2013-01-26 12:13:00,27.6,23.4,30.29,WSW,250,2.0,3.0,84,0.00,,,0.00,VWS V14.01,2013-01-26 17:13:00,
2013-01-26 12:18:00,27.7,23.5,30.29,SW,227,2.0,5.0,84,0.00,,,0.00,VWS V14.01,2013-01-26 17:18:00,
2013-01-26 12:23:00,27.8,23.3,30.30,West,261,2.0,5.0,83,0.00,,,0.00,VWS V14.01,2013-01-26 17:23:00,
2013-01-26 12:28:00,27.9,23.4,30.29,WNW,288,3.0,5.0,83,0.00,,,0.00,VWS V14.01,2013-01-26 17:28:00,
2013-01-26 12:33:00,27.8,23.0,30.29,WSW,243,2.0,2.0,82,0.01,,,0.01,VWS V14.01,2013-01-26 17:33:00,
2013-01-26 12:38:00,27.8,23.0,30.30,WSW,244,1.0,4.0,82,0.01,,,0.01,VWS V14.01,2013-01-26 17:38:00,
2013-01-26 12:43:00,27.7,22.6,30.30,WNW,300,3.0,6.0,81,0.01,,,0.01,VWS V14.01,2013-01-26 17:43:00,
2013-01-26 12:48:00,27.8,22.7,30.29,WNW,286,2.0,6.0,81,0.02,,,0.02,VWS V14.01,2013-01-26 17:48:00,
2013-01-26 12:53:00,27.7,22.4,30.30,West,265,0.0,6.0,80,0.02,,,0.02,VWS V14.01,2013-01-26 17:53:00,
2013-01-26 12:58:00,27.6,22.2,30.30,SSW,213,3.0,8.0,80,0.02,,,0.02,VWS V14.01,2013-01-26 17:58:00,
2013-01-26 13:03:00,27.6,22.2,30.30,WSW,243,0.0,6.0,80,0.02,,,0.02,VWS V14.01,2013-01-26 18:03:00,
2013-01-26 13:09:00,27.7,22.4,30.30,WSW,251,2.0,6.0,80,0.03,,,0.03,VWS V14.01,2013-01-26 18:09:00,
2013-01-26 13:14:00,27.7,22.4,30.30,WNW,291,4.0,6.0,80,0.03,,,0.03,VWS V14.01,2013-01-26 18:14:00,
2013-01-26 13:19:00,27.7,22.0,30.30,WSW,246,0.0,6.0,79,0.03,,,0.03,VWS V14.01,2013-01-26 18:19:00,
2013-01-26 13:24:00,27.8,22.4,30.30,West,274,0.0,6.0,80,0.03,,,0.03,VWS V14.01,2013-01-26 18:24:00,
2013-01-26 13:29:00,28.0,22.3,30.30,West,274,2.0,6.0,79,0.03,,,0.03,VWS V14.01,2013-01-26 18:29:00,
2013-01-26 13:34:00,28.1,22.1,30.30,SW,227,0.0,4.0,78,0.04,,,0.04,VWS V14.01,2013-01-26 18:34:00,
2013-01-26 13:39:00,28.1,21.8,30.30,West,259,4.0,8.0,77,0.04,,,0.04,VWS V14.01,2013-01-26 18:39:00,
2013-01-26 13:44:00,28.1,22.1,30.31,WSW,238,0.0,8.0,78,0.04,,,0.04,VWS V14.01,2013-01-26 18:44:00,
2013-01-26 13:49:00,28.2,22.2,30.30,SW,223,2.0,8.0,78,0.04,,,0.04,VWS V14.01,2013-01-26 18:49:00,
2013-01-26 13:54:00,28.4,22.4,30.30,SSW,197,2.0,8.0,78,0.04,,,0.04,VWS V14.01,2013-01-26 18:54:00,
2013-01-26 13:59:00,28.4,22.1,30.30,SSW,202,2.0,8.0,77,0.04,,,0.04,VWS V14.01,2013-01-26 18:59:00,
2013-01-26 14:04:00,28.4,21.8,30.30,WSW,247,5.0,7.0,76,0.02,,,0.04,VWS V14.01,2013-01-26 19:04:00,
2013-01-26 14:09:00,28.5,21.9,30.30,WSW,243,0.0,7.0,76,0.03,,,0.05,VWS V14.01,2013-01-26 19:09:00,
2013-01-26 14:14:00,28.7,21.8,30.30,WNW,296,6.0,9.0,75,0.03,,,0.05,VWS V14.01,2013-01-26 19:14:00,
2013-01-26 14:20:00,28.5,21.9,30.30,WNW,297,6.0,9.0,76,0.03,,,0.05,VWS V14.01,2013-01-26 19:20:00,
2013-01-26 14:25:00,28.2,21.9,30.31,West,270,3.0,9.0,77,0.03,,,0.05,VWS V14.01,2013-01-26 19:25:00,
2013-01-26 14:30:00,27.9,21.9,30.31,WNW,298,4.0,10.0,78,0.03,,,0.05,VWS V14.01,2013-01-26 19:30:00,
2013-01-26 14:35:00,27.7,22.4,30.31,WNW,302,4.0,8.0,80,0.02,,,0.05,VWS V14.01,2013-01-26 19:35:00,
2013-01-26 14:40:00,27.5,22.5,30.31,NW,304,4.0,9.0,81,0.02,,,0.05,VWS V14.01,2013-01-26 19:40:00,
2013-01-26 14:45:00,27.3,22.5,30.31,WNW,300,5.0,10.0,82,0.03,,,0.06,VWS V14.01,2013-01-26 19:45:00,
2013-01-26 14:50:00,27.2,22.7,30.31,West,275,4.0,10.0,83,0.03,,,0.06,VWS V14.01,2013-01-26 19:50:00,
2013-01-26 14:55:00,27.2,22.7,30.32,WNW,285,3.0,10.0,83,0.03,,,0.06,VWS V14.01,2013-01-26 19:55:00,
2013-01-26 15:00:00,27.3,23.1,30.32,WNW,298,3.0,4.0,84,0.02,,,0.06,VWS V14.01,2013-01-26 20:00:00,
2013-01-26 15:05:00,27.4,23.2,30.32,SW,232,1.0,4.0,84,0.02,,,0.06,VWS V14.01,2013-01-26 20:05:00,
2013-01-26 15:10:00,27.5,23.0,30.33,SW,230,1.0,4.0,83,0.02,,,0.06,VWS V14.01,2013-01-26 20:10:00,
2013-01-26 15:15:00,27.5,22.5,30.33,WSW,257,1.0,9.0,81,0.02,,,0.06,VWS V14.01,2013-01-26 20:15:00,
2013-01-26 15:20:00,27.5,22.5,30.33,WNW,289,0.0,9.0,81,0.02,,,0.06,VWS V14.01,2013-01-26 20:20:00,
2013-01-26 15:25:00,27.5,22.5,30.33,West,272,0.0,9.0,81,0.02,,,0.06,VWS V14.01,2013-01-26 20:25:00,
2013-01-26 15:30:00,27.6,22.5,30.33,SW,227,2.0,2.0,81,0.01,,,0.06,VWS V14.01,2013-01-26 20:30:00,
2013-01-26 15:35:00,27.7,22.4,30.33,WSW,238,0.0,6.0,80,0.01,,,0.06,VWS V14.01,2013-01-26 20:35:00,
2013-01-26 15:40:00,27.8,22.4,30.34,SSW,212,0.0,6.0,80,0.01,,,0.06,VWS V14.01,2013-01-26 20:40:00,
2013-01-26 15:45:00,27.8,22.1,30.34,WSW,256,0.0,6.0,79,0.01,,,0.06,VWS V14.01,2013-01-26 20:45:00,
2013-01-26 15:50:00,27.8,21.9,30.35,West,266,3.0,6.0,78,0.01,,,0.06,VWS V14.01,2013-01-26 20:50:00,
2013-01-26 15:56:00,27.7,21.8,30.34,WSW,257,4.0,7.0,78,0.01,,,0.06,VWS V14.01,2013-01-26 20:56:00,
2013-01-26 16:01:00,27.7,21.4,30.34,WSW,257,1.0,5.0,77,0.00,,,0.06,VWS V14.01,2013-01-26 21:01:00,
2013-01-26 16:06:00,27.7,21.1,30.35,NNW,328,7.0,10.0,76,0.00,,,0.06,VWS V14.01,2013-01-26 21:06:00,
2013-01-26 16:11:00,27.3,21.7,30.36,WNW,288,5.0,12.0,79,0.00,,,0.06,VWS V14.01,2013-01-26 21:11:00,
2013-01-26 16:16:00,26.9,21.6,30.35,NW,307,3.0,12.0,80,0.00,,,0.06,VWS V14.01,2013-01-26 21:16:00,
2013-01-26 16:21:00,26.9,21.6,30.36,NW,307,7.0,12.0,80,0.00,,,0.06,VWS V14.01,2013-01-26 21:21:00,
2013-01-26 16:26:00,26.9,21.6,30.36,WNW,286,1.0,12.0,80,0.00,,,0.06,VWS V14.01,2013-01-26 21:26:00,
2013-01-26 16:31:00,26.9,21.6,30.36,WNW,288,2.0,7.0,80,0.00,,,0.06,VWS V14.01,2013-01-26 21:31:00,
2013-01-26 16:36:00,27.0,21.1,30.36,NW,309,6.0,7.0,78,0.00,,,0.06,VWS V14.01,2013-01-26 21:36:00,
2013-01-26 16:41:00,27.1,21.2,30.36,WNW,287,3.0,7.0,78,0.00,,,0.06,VWS V14.01,2013-01-26 21:41:00,
2013-01-26 16:46:00,27.1,20.5,30.37,NW,310,2.0,7.0,76,0.00,,,0.06,VWS V14.01,2013-01-26 21:46:00,
2013-01-26 16:51:00,27.1,20.9,30.37,NNW,337,4.0,8.0,77,0.00,,,0.06,VWS V14.01,2013-01-26 21:51:00,
2013-01-26 16:56:00,26.8,20.9,30.37,NW,307,6.0,11.0,78,0.00,,,0.06,VWS V14.01,2013-01-26 21:56:00,
2013-01-26 17:01:00,26.5,20.6,30.38,NW,314,6.0,14.0,78,0.00,,,0.06,VWS V14.01,2013-01-26 22:01:00,
2013-01-26 17:06:00,26.3,20.4,30.38,NW,326,6.0,14.0,78,0.00,,,0.06,VWS V14.01,2013-01-26 22:06:00,
2013-01-26 17:11:00,26.2,20.3,30.39,NW,312,6.0,14.0,78,0.00,,,0.06,VWS V14.01,2013-01-26 22:11:00,
2013-01-26 17:16:00,26.0,20.1,30.39,NW,311,6.0,14.0,78,0.00,,,0.06,VWS V14.01,2013-01-26 22:16:00,
2013-01-26 17:22:00,26.0,20.1,30.39,WNW,302,3.0,14.0,78,0.00,,,0.06,VWS V14.01,2013-01-26 22:22:00,
2013-01-26 17:27:00,25.8,19.6,30.39,NW,305,5.0,14.0,77,0.00,,,0.06,VWS V14.01,2013-01-26 22:27:00,
2013-01-26 17:32:00,25.7,19.5,30.39,WNW,296,3.0,4.0,77,0.00,,,0.06,VWS V14.01,2013-01-26 22:32:00,
2013-01-26 17:37:00,25.7,19.5,30.39,WNW,296,3.0,6.0,77,0.00,,,0.06,VWS V14.01,2013-01-26 22:37:00,
2013-01-26 17:42:00,25.7,19.5,30.39,WNW,300,4.0,6.0,77,0.00,,,0.06,VWS V14.01,2013-01-26 22:42:00,
2013-01-26 17:47:00,25.6,19.4,30.39,NW,311,6.0,10.0,77,0.00,,,0.06,VWS V14.01,2013-01-26 22:47:00,
2013-01-26 17:52:00,25.6,19.4,30.40,NW,313,4.0,10.0,77,0.00,,,0.06,VWS V14.01,2013-01-26 22:52:00,
2013-01-26 17:57:00,25.6,19.1,30.40,WNW,300,3.0,10.0,76,0.00,,,0.06,VWS V14.01,2013-01-26 22:57:00,
2013-01-26 18:02:00,25.5,19.0,30.41,NW,309,5.0,9.0,76,0.00,,,0.06,VWS V14.01,2013-01-26 23:02:00,
2013-01-26 18:07:00,25.5,18.7,30.41,WNW,283,1.0,9.0,75,0.00,,,0.06,VWS V14.01,2013-01-26 23:07:00,
2013-01-26 18:12:00,25.3,18.5,30.41,WNW,287,2.0,9.0,75,0.00,,,0.06,VWS V14.01,2013-01-26 23:12:00,
2013-01-26 18:17:00,25.2,18.4,30.42,WNW,300,2.0,9.0,75,0.00,,,0.06,VWS V14.01,2013-01-26 23:17:00,
2013-01-26 18:22:00,25.1,18.3,30.42,WNW,293,5.0,9.0,75,0.00,,,0.06,VWS V14.01,2013-01-26 23:22:00,
2013-01-26 18:27:00,25.1,18.0,30.42,WNW,291,4.0,9.0,74,0.00,,,0.06,VWS V14.01,2013-01-26 23:27:00,
2013-01-26 18:32:00,25.1,18.0,30.42,West,279,0.0,3.0,74,0.00,,,0.06,VWS V14.01,2013-01-26 23:32:00,
2013-01-26 18:37:00,25.2,17.8,30.42,WNW,303,3.0,6.0,73,0.00,,,0.06,VWS V14.01,2013-01-26 23:37:00,
2013-01-26 18:42:00,25.2,17.5,30.42,NW,309,7.0,7.0,72,0.00,,,0.06,VWS V14.01,2013-01-26 23:42:00,
2013-01-26 18:47:00,25.3,17.2,30.43,NW,304,6.0,9.0,71,0.00,,,0.06,VWS V14.01,2013-01-26 23:47:00,
2013-01-26 18:52:00,25.4,17.0,30.43,WNW,296,10.0,11.0,70,0.00,,,0.06,VWS V14.01,2013-01-26 23:52:00,
2013-01-26 18:57:00,25.4,16.3,30.43,WNW,296,3.0,12.0,68,0.00,,,0.06,VWS V14.01,2013-01-26 23:57:00,
2013-01-26 19:02:00,25.4,16.0,30.43,WNW,295,5.0,9.0,67,0.00,,,0.06,VWS V14.01,2013-01-27 00:02:00,
2013-01-26 19:07:00,25.4,16.0,30.43,WNW,289,5.0,9.0,67,0.00,,,0.06,VWS V14.01,2013-01-27 00:07:00,
2013-01-26 19:12:00,25.4,16.0,30.43,West,269,4.0,9.0,67,0.00,,,0.06,VWS V14.01,2013-01-27 00:12:00,
2013-01-26 19:17:00,25.4,16.0,30.44,WNW,286,7.0,11.0,67,0.00,,,0.06,VWS V14.01,2013-01-27 00:17:00,
2013-01-26 19:22:00,25.4,16.0,30.44,WNW,298,3.0,11.0,67,0.00,,,0.06,VWS V14.01,2013-01-27 00:22:00,
2013-01-26 19:27:00,25.3,15.6,30.44,WNW,286,2.0,11.0,66,0.00,,,0.06,VWS V14.01,2013-01-27 00:27:00,
2013-01-26 19:32:00,25.2,15.1,30.44,NW,309,4.0,6.0,65,0.00,,,0.06,VWS V14.01,2013-01-27 00:32:00,
2013-01-26 19:37:00,25.1,15.0,30.44,WNW,300,5.0,11.0,65,0.00,,,0.06,VWS V14.01,2013-01-27 00:37:00,
2013-01-26 19:42:00,24.9,14.5,30.44,NW,305,1.0,11.0,64,0.00,,,0.06,VWS V14.01,2013-01-27 00:42:00,
2013-01-26 19:48:00,24.8,14.4,30.45,WNW,285,7.0,11.0,64,0.00,,,0.06,VWS V14.01,2013-01-27 00:48:00,
2013-01-26 19:53:00,24.5,14.1,30.45,WNW,283,3.0,11.0,64,0.00,,,0.06,VWS V14.01,2013-01-27 00:53:00,
2013-01-26 19:58:00,24.4,14.0,30.45,WNW,291,2.0,11.0,64,0.00,,,0.06,VWS V14.01,2013-01-27 00:58:00,
2013-01-26 20:03:00,24.3,14.2,30.46,NW,304,6.0,6.0,65,0.00,,,0.06,VWS V14.01,2013-01-27 01:03:00,
2013-01-26 20:08:00,24.3,14.2,30.46,West,280,1.0,6.0,65,0.00,,,0.06,VWS V14.01,2013-01-27 01:08:00,
2013-01-26 20:13:00,24.4,14.3,30.46,West,277,3.0,9.0,65,0.00,,,0.06,VWS V14.01,2013-01-27 01:13:00,
2013-01-26 20:18:00,24.3,14.2,30.46,WNW,302,2.0,9.0,65,0.00,,,0.06,VWS V14.01,2013-01-27 01:18:00,
2013-01-26 20:23:00,24.3,14.6,30.46,WNW,290,5.0,9.0,66,0.00,,,0.06,VWS V14.01,2013-01-27 01:23:00,
2013-01-26 20:28:00,24.3,14.6,30.47,NW,304,3.0,9.0,66,0.00,,,0.06,VWS V14.01,2013-01-27 01:28:00,
2013-01-26 20:33:00,24.3,14.9,30.46,WNW,292,1.0,6.0,67,0.00,,,0.06,VWS V14.01,2013-01-27 01:33:00,
2013-01-26 20:38:00,24.2,14.8,30.47,West,281,0.0,10.0,67,0.00,,,0.06,VWS V14.01,2013-01-27 01:38:00,
2013-01-26 20:43:00,24.1,14.7,30.47,WNW,290,3.0,10.0,67,0.00,,,0.06,VWS V14.01,2013-01-27 01:43:00,
2013-01-26 20:48:00,24.1,15.1,30.48,West,279,0.0,10.0,68,0.00,,,0.06,VWS V14.01,2013-01-27 01:48:00,
2013-01-26 20:53:00,24.0,15.0,30.48,WNW,290,2.0,10.0,68,0.00,,,0.06,VWS V14.01,2013-01-27 01:53:00,
2013-01-26 20:59:00,23.9,14.9,30.48,WNW,290,0.0,10.0,68,0.00,,,0.06,VWS V14.01,2013-01-27 01:59:00,
2013-01-26 21:04:00,23.7,15.0,30.48,WNW,285,2.0,3.0,69,0.00,,,0.06,VWS V14.01,2013-01-27 02:04:00,
2013-01-26 21:09:00,23.6,14.9,30.48,SW,236,0.0,3.0,69,0.00,,,0.06,VWS V14.01,2013-01-27 02:09:00,
2013-01-26 21:14:00,23.6,14.9,30.48,WNW,292,2.0,5.0,69,0.00,,,0.06,VWS V14.01,2013-01-27 02:14:00,
2013-01-26 21:19:00,23.6,14.9,30.48,NW,308,4.0,5.0,69,0.00,,,0.06,VWS V14.01,2013-01-27 02:19:00,
2013-01-26 21:24:00,23.7,15.0,30.48,WNW,286,3.0,5.0,69,0.00,,,0.06,VWS V14.01,2013-01-27 02:24:00,
2013-01-26 21:29:00,23.7,15.4,30.48,WNW,286,5.0,7.0,70,0.00,,,0.06,VWS V14.01,2013-01-27 02:29:00,
2013-01-26 21:34:00,23.7,15.4,30.49,NW,306,4.0,7.0,70,0.00,,,0.06,VWS V14.01,2013-01-27 02:34:00,
2013-01-26 21:39:00,23.6,15.3,30.48,WNW,289,4.0,7.0,70,0.00,,,0.06,VWS V14.01,2013-01-27 02:39:00,
2013-01-26 21:44:00,23.6,15.3,30.48,NW,313,5.0,7.0,70,0.00,,,0.06,VWS V14.01,2013-01-27 02:44:00,
2013-01-26 21:49:00,23.6,15.3,30.48,WNW,298,0.0,7.0,70,0.00,,,0.06,VWS V14.01,2013-01-27 02:49:00,
2013-01-26 21:54:00,23.5,15.2,30.48,WNW,290,4.0,7.0,70,0.00,,,0.06,VWS V14.01,2013-01-27 02:54:00,
2013-01-26 21:59:00,23.5,15.5,30.49,WNW,287,2.0,7.0,71,0.00,,,0.06,VWS V14.01,2013-01-27 02:59:00,
2013-01-26 22:04:00,23.4,15.4,30.48,West,277,2.0,3.0,71,0.00,,,0.06,VWS V14.01,2013-01-27 03:04:00,
2013-01-26 22:09:00,23.4,15.4,30.49,NW,304,0.0,3.0,71,0.00,,,0.06,VWS V14.01,2013-01-27 03:09:00,
2013-01-26 22:14:00,23.3,15.3,30.49,WNW,286,1.0,4.0,71,0.00,,,0.06,VWS V14.01,2013-01-27 03:14:00,
2013-01-26 22:19:00,23.3,15.3,30.49,WNW,286,0.0,4.0,71,0.00,,,0.06,VWS V14.01,2013-01-27 03:19:00,
2013-01-26 22:24:00,23.1,15.1,30.49,WNW,286,0.0,4.0,71,0.00,,,0.06,VWS V14.01,2013-01-27 03:24:00,
2013-01-26 22:29:00,23.0,15.3,30.50,WNW,286,0.0,4.0,72,0.00,,,0.06,VWS V14.01,2013-01-27 03:29:00,
2013-01-26 22:34:00,22.8,15.1,30.50,WNW,286,0.0,0.0,72,0.00,,,0.06,VWS V14.01,2013-01-27 03:34:00,
2013-01-26 22:39:00,22.6,15.3,30.50,WNW,286,0.0,0.0,73,0.00,,,0.06,VWS V14.01,2013-01-27 03:39:00,
2013-01-26 22:45:00,22.5,15.2,30.50,WNW,286,0.0,0.0,73,0.00,,,0.06,VWS V14.01,2013-01-27 03:45:00,
2013-01-26 22:50:00,22.3,15.3,30.51,WNW,286,0.0,0.0,74,0.00,,,0.06,VWS V14.01,2013-01-27 03:50:00,
2013-01-26 22:55:00,22.2,15.2,30.51,WNW,286,0.0,0.0,74,0.00,,,0.06,VWS V14.01,2013-01-27 03:55:00,
2013-01-26 23:00:00,22.0,15.3,30.51,WNW,286,0.0,0.0,75,0.00,,,0.06,VWS V14.01,2013-01-27 04:00:00,
2013-01-26 23:05:00,21.9,15.2,30.51,WNW,286,0.0,0.0,75,0.00,,,0.06,VWS V14.01,2013-01-27 04:05:00,
2013-01-26 23:10:00,21.8,15.1,30.51,WNW,286,0.0,0.0,75,0.00,,,0.06,VWS V14.01,2013-01-27 04:10:00,
2013-01-26 23:15:00,21.7,15.0,30.51,WNW,286,0.0,0.0,75,0.00,,,0.06,VWS V14.01,2013-01-27 04:15:00,
2013-01-26 23:20:00,21.6,14.9,30.51,WNW,286,0.0,0.0,75,0.00,,,0.06,VWS V14.01,2013-01-27 04:20:00,
2013-01-26 23:25:00,21.6,14.9,30.51,WNW,286,0.0,0.0,75,0.00,,,0.06,VWS V14.01,2013-01-27 04:25:00,
2013-01-26 23:30:00,21.5,14.8,30.51,WNW,286,0.0,0.0,75,0.00,,,0.06,VWS V14.01,2013-01-27 04:30:00,
2013-01-26 23:35:00,21.4,15.0,30.51,WNW,286,0.0,0.0,76,0.00,,,0.06,VWS V14.01,2013-01-27 04:35:00,
2013-01-26 23:40:00,21.3,14.9,30.51,WNW,286,0.0,0.0,76,0.00,,,0.06,VWS V14.01,2013-01-27 04:40:00,
2013-01-26 23:45:00,21.3,14.9,30.52,WNW,286,0.0,0.0,76,0.00,,,0.06,VWS V14.01,2013-01-27 04:45:00,
2013-01-26 23:50:00,21.1,14.7,30.52,WNW,286,0.0,0.0,76,0.00,,,0.06,VWS V14.01,2013-01-27 04:50:00,
2013-01-26 23:55:00,20.9,14.5,30.52,WNW,286,0.0,0.0,76,0.00,,,0.06,VWS V14.01,2013-01-27 04:55:00,